[[{"header":{"parameterUnit":"m.s-1","parameterCategory":2,"la1":30.2991,"la2":30.254,"lo1":-89.0895,"lo2":-89.0444,"dy":0.0017,"dx":0.0017,"nx":28,"ny":28,"refTime":"2025-06-11T03:00:00:Z","depth":"0","parameterNumber":2,"parameterNumberName":"U-component_of_CURRENTS"},"data":[0,0,0,0,0,0,0,0,0,0,0,0,0,0,0,0,0,0,0,0,0,0,0,0,0,0,0,0,0,0,0,0,0,0,0,0,0,0,0,0,0,0,0,0,0,0,0,0,0,0,0,0,0,0,0,0,0,0,0.2083,0.2084,0,0.2123,0.2124,0.2124,0.2093,0.2092,0.2091,0.209,0.2028,0.2027,0.2026,0,0,0,0,0,0,0,0,0,0,0,0,0,0.1989,0.1991,0.2083,0.2084,0.2085,0.2123,0.2124,0.2124,0.2093,0.2092,0.209,0.2089,0.2028,0.2027,0.2026,0,0,0,0,0,0,0,0,0,0,0,0,0,0.2026,0.1991,0.2083,0.2077,0.2077,0.2123,0.2124,0.2124,0.2093,0.2092,0.209,0.2089,0.2028,0.2027,0.2026,0.2048,0,0,0.2023,0.2022,0,0,0,0,0,0,0,0,0.2024,0.2029,0.2077,0.2078,0.2078,0.2105,0.2068,0.2095,0.2093,0.2083,0.209,0.2088,0.2048,0.2045,0.2052,0.2045,0.2043,0.2023,0.2022,0.2022,0.2021,0,0,0,0,0,0,0,0.2021,0.2027,0.2095,0.2078,0.2079,0.2076,0.2079,0.2073,0.2068,0.2084,0.2082,0.2094,0.2047,0.2053,0.205,0.2042,0.2023,0.2022,0.2021,0.2021,0.2086,0.2089,0,0,0,0,0,0,0.2026,0.2025,0.2094,0.2097,0.2052,0.2079,0.2083,0.2095,0.207,0.2067,0.2095,0.2092,0.2055,0.2051,0.2047,0.2097,0.2022,0.202,0.202,0.2084,0.2087,0.2089,0,0,0,0,0,0,0.2024,0.2032,0.2092,0.2065,0.2073,0.2083,0.2096,0.2096,0.2108,0.2081,0.2074,0.2108,0.2054,0.2049,0.206,0.2093,0.202,0.2019,0.2081,0.2085,0.2088,0.218,0,0,0,0,0,0,0.2021,0.2031,0.2044,0.2065,0.2075,0.2131,0.2098,0.2098,0.2119,0.2116,0.209,0.2083,0.2053,0.2063,0.2059,0.209,0.2018,0.2078,0.2083,0.2087,0.2174,0.2186,0.2197,0,0,0,0,0,0.2018,0.2047,0.2045,0.2054,0.2092,0.2133,0.2137,0.2136,0.2121,0.2138,0.2125,0.2084,0.2089,0.2064,0.2059,0.209,0.2076,0.2081,0.2087,0.2169,0.2184,0.2197,0,0,0,0,0,0,0.2016,0.2048,0.2045,0.2083,0.211,0.2129,0.2151,0.2149,0.2155,0.2148,0.2112,0.2105,0.2127,0.2105,0.2078,0.2127,0.2077,0.2082,0.2141,0.2155,0.2166,0.2224,0.2017,0,0,0,0,0,0.2024,0.2051,0.2079,0.2111,0.2127,0.2141,0.2158,0.216,0.2169,0.217,0.2155,0.2145,0.2149,0.2147,0.2142,0.2169,0.2267,0.219,0.2201,0.2211,0.2258,0.2494,0.2533,0.2107,0.2107,0.2107,0,0,0.2032,0.2055,0.207,0.2113,0.2131,0.2167,0.2147,0.2184,0.2208,0.2162,0.2189,0.2182,0.2165,0.2195,0.2203,0.2178,0.2374,0.2218,0.2226,0.2269,0.2504,0.2547,0.2584,0.2111,0.211,0.211,0,0,0.2073,0.2085,0.2124,0.2151,0.2191,0.2197,0.2212,0.224,0.2246,0.2274,0.2254,0.2293,0.2268,0.2296,0.2297,0.2379,0.2428,0.235,0.2455,0.2683,0.2722,0.2757,0.2903,0.2951,0.2357,0.2357,0.2358,0,0.2081,0.2127,0.2143,0.219,0.2209,0.2214,0.2252,0.2272,0.2298,0.2327,0.229,0.2353,0.2334,0.2414,0.2439,0.2409,0.2526,0.2396,0.2705,0.2742,0.2777,0.2919,0.297,0.2363,0.2362,0.2361,0.2361,0,0.2154,0.2185,0.2214,0.2262,0.2287,0.2324,0.2347,0.2377,0.2376,0.2405,0.2481,0.2489,0.2536,0.2531,0.2504,0.2714,0.2711,0.2694,0.2678,0.2826,0.2964,0.3016,0.237,0.2368,0.2366,0.2365,0,0,0.2181,0.2247,0.2257,0.2274,0.2322,0.2345,0.2399,0.2457,0.2518,0.255,0.2663,0.2682,0.2712,0.2722,0.2713,0.2902,0.322,0.291,0.292,0.307,0.3705,0.3621,0.3669,0.328,0.329,0.3298,0.3691,0,0.2227,0.23,0.2326,0.2378,0.2407,0.2429,0.2476,0.2532,0.2585,0.2701,0.2763,0.2852,0.2772,0.2822,0.2998,0.3181,0.3369,0.3113,0.3527,0.3539,0.3461,0.3732,0.3664,0.4005,0.3743,0.3751,0.3758,0,0.2287,0.2321,0.2374,0.2419,0.2436,0.2464,0.2546,0.2597,0.2754,0.2816,0.294,0.3001,0.3229,0.3165,0.3577,0.3426,0.3584,0.372,0.3739,0.3679,0.3556,0.3821,0.411,0.4019,0.3838,0.3832,0.3826,0,0.2275,0.2349,0.2377,0.2395,0.2456,0.2481,0.2513,0.2631,0.2726,0.2926,0.306,0.3268,0.343,0.3689,0.3872,0.38,0.4352,0.428,0.4342,0.4333,0.4368,0.4345,0.464,0.4633,0.4632,0.4631,0.463,0,0.2301,0.2323,0.2368,0.238,0.243,0.2469,0.2562,0.2637,0.2831,0.2983,0.3121,0.3301,0.3598,0.3875,0.4027,0.4344,0.4474,0.4455,0.4486,0.4385,0.436,0.4346,0.4271,0.4645,0.4642,0.4639,0.4637,0,0.2283,0.2314,0.2347,0.2399,0.2421,0.2451,0.2586,0.2694,0.2851,0.3084,0.3175,0.3471,0.3818,0.4052,0.4497,0.4551,0.4755,0.4892,0.4696,0.4697,0.4643,0.4573,0.4713,0.4595,0.5114,0.5116,0.5116,0,0.2283,0.2291,0.2347,0.239,0.2411,0.2476,0.2554,0.2692,0.2836,0.315,0.3299,0.3668,0.3888,0.4453,0.4685,0.5002,0.482,0.5071,0.4923,0.4723,0.4673,0.4387,0.4254,0.5003,0.5003,0.5003,0.5003,0,0.2305,0.2314,0.2371,0.2421,0.2487,0.2555,0.2673,0.2778,0.2965,0.3157,0.3417,0.3613,0.4118,0.4436,0.4812,0.4968,0.4859,0.5076,0.5005,0.4757,0.4348,0.4216,0.4577,0.5002,0.5003,0.5003,0.5003,0.5003,0.2367,0.2389,0.2462,0.2495,0.2569,0.2622,0.2632,0.2784,0.2946,0.3151,0.3387,0.3631,0.4163,0.4704,0.4807,0.5001,0.4873,0.4981,0.4962,0.4722,0.4471,0.4766,0.5109,0.511,0.511,0.5111,0.5111,0,0.2451,0.248,0.2536,0.257,0.2594,0.2619,0.2721,0.2708,0.2796,0.3053,0.3219,0.3748,0.4161,0.4549,0.4986,0.4936,0.4687,0.4842,0.4492,0.4405,0.4869,0.472,0.483,0.483,0.483,0.483,0.483,0.483,0.2536,0.2593,0.257,0.259,0.2581,0.2544,0.2542,0.2537,0.267,0.2863,0.3116,0.3392,0.4044,0.4685,0.4878,0.4815,0.4506,0.4353,0.4259,0.4654,0.4664,0.4672,0.4517,0.4583,0.4582,0.3638,0.3632,0.3627]},{"header":{"parameterUnit":"m.s-1","parameterCategory":2,"la1":30.2991,"la2":30.254,"lo1":-89.0895,"lo2":-89.0444,"dy":0.0017,"dx":0.0017,"nx":28,"ny":28,"refTime":"2025-06-11T03:00:00:Z","depth":"0","parameterNumber":3,"parameterNumberName":"V-component_of_CURRENTS"},"data":[0,0,0,0,0,0,0,0,0,0,0,0,0,0,0,0,0,0,0,0,0,0,0,0,0,0,0,0,0,0,0,0,0,0,0,0,0,0,0,0,0,0,0,0,0,0,0,0,0,0,0,0,0,0,0,0,0,0,-0.04,-0.0401,0,-0.046,-0.0461,-0.0461,-0.0452,-0.0451,-0.0451,-0.045,-0.0468,-0.0469,-0.047,0,0,0,0,0,0,0,0,0,0,0,0,0,-0.0289,-0.0291,-0.04,-0.0401,-0.0402,-0.046,-0.0461,-0.0461,-0.0452,-0.0451,-0.045,-0.0449,-0.0467,-0.0469,-0.047,0,0,0,0,0,0,0,0,0,0,0,0,0,-0.034,-0.0292,-0.04,-0.0406,-0.0407,-0.046,-0.0461,-0.0461,-0.0453,-0.0451,-0.045,-0.0449,-0.0467,-0.0469,-0.0471,-0.0507,0,0,-0.0476,-0.0477,0,0,0,0,0,0,0,0,-0.0337,-0.0344,-0.0404,-0.0406,-0.0407,-0.0449,-0.0428,-0.0475,-0.0453,-0.0433,-0.045,-0.0448,-0.046,-0.0462,-0.0474,-0.0508,-0.0509,-0.0477,-0.0478,-0.0478,-0.0479,0,0,0,0,0,0,0,-0.0334,-0.0342,-0.0422,-0.0405,-0.0407,-0.041,-0.0415,-0.0437,-0.0451,-0.0435,-0.0435,-0.0445,-0.046,-0.0472,-0.0474,-0.0509,-0.0476,-0.0478,-0.0479,-0.048,-0.0569,-0.057,0,0,0,0,0,0,-0.0332,-0.0338,-0.042,-0.0424,-0.0371,-0.0413,-0.0419,-0.0435,-0.0451,-0.0453,-0.0446,-0.0444,-0.047,-0.0472,-0.0475,-0.0481,-0.0478,-0.048,-0.0481,-0.0567,-0.0569,-0.057,0,0,0,0,0,0,-0.0329,-0.0339,-0.0418,-0.0383,-0.0394,-0.0416,-0.0435,-0.0437,-0.0452,-0.0461,-0.0461,-0.0458,-0.0469,-0.0472,-0.0508,-0.0483,-0.0481,-0.0483,-0.0566,-0.0568,-0.0569,-0.0517,0,0,0,0,0,0,-0.0326,-0.0338,-0.0349,-0.0384,-0.0396,-0.0452,-0.0436,-0.0439,-0.0461,-0.0459,-0.0471,-0.0471,-0.0468,-0.0506,-0.051,-0.0485,-0.0484,-0.0564,-0.0567,-0.0569,-0.0518,-0.0517,-0.0517,0,0,0,0,0,-0.0322,-0.0339,-0.0349,-0.0359,-0.0411,-0.0453,-0.046,-0.0469,-0.0462,-0.0476,-0.049,-0.0471,-0.0522,-0.0509,-0.0514,-0.0488,-0.0563,-0.0566,-0.0569,-0.0518,-0.0517,-0.0517,0,0,0,0,0,0,-0.0287,-0.0342,-0.0352,-0.0383,-0.0418,-0.0452,-0.0467,-0.0477,-0.0501,-0.0497,-0.0499,-0.0502,-0.0523,-0.0532,-0.0517,-0.0527,-0.0535,-0.0539,-0.0495,-0.0495,-0.0494,-0.0376,-0.0486,0,0,0,0,0,-0.029,-0.0321,-0.0368,-0.0391,-0.0412,-0.0442,-0.046,-0.0472,-0.0498,-0.0506,-0.0519,-0.0531,-0.054,-0.0539,-0.0563,-0.0573,-0.0483,-0.0561,-0.056,-0.0559,-0.0471,-0.0294,-0.0265,-0.0579,-0.0579,-0.0579,0,0,-0.028,-0.0316,-0.033,-0.0387,-0.0413,-0.044,-0.0449,-0.0482,-0.0486,-0.0506,-0.0521,-0.0543,-0.0552,-0.0559,-0.0566,-0.0557,-0.045,-0.0563,-0.0561,-0.0471,-0.0293,-0.0261,-0.0232,-0.0581,-0.0581,-0.058,0,0,-0.028,-0.0313,-0.034,-0.0374,-0.0425,-0.0443,-0.0455,-0.05,-0.05,-0.0537,-0.0536,-0.0521,-0.0583,-0.0534,-0.0528,-0.0539,-0.0466,-0.0587,-0.0463,-0.0296,-0.0265,-0.0236,-0.0171,-0.0136,-0.0569,-0.0568,-0.0568,0,-0.0261,-0.0303,-0.0352,-0.0387,-0.0397,-0.0443,-0.0455,-0.0476,-0.0522,-0.0462,-0.0538,-0.049,-0.0539,-0.043,-0.0459,-0.0522,-0.045,-0.046,-0.0282,-0.0252,-0.0222,-0.0161,-0.0123,-0.0566,-0.0567,-0.0567,-0.0567,0,-0.0287,-0.0315,-0.0333,-0.0385,-0.0404,-0.0428,-0.0457,-0.0455,-0.0469,-0.0435,-0.0359,-0.0407,-0.0335,-0.0388,-0.0441,-0.0267,-0.0298,-0.031,-0.0257,-0.0185,-0.0131,-0.0092,-0.0563,-0.0564,-0.0565,-0.0565,0,0,-0.0243,-0.033,-0.0333,-0.0326,-0.0397,-0.0394,-0.0393,-0.0337,-0.0205,-0.0276,-0.0097,-0.0169,-0.0124,-0.0112,-0.0154,-0.0036,0.0132,-0.0091,-0.0084,0.0021,0.0455,0.033,0.0359,0.0167,0.0176,0.0183,0.0381,0,-0.0235,-0.0276,-0.0323,-0.0314,-0.0321,-0.0331,-0.0279,-0.0221,-0.0154,-0.0001,0.002,0.0137,-0.0041,0.0024,0.0102,0.0162,0.0252,0.0077,0.0333,0.0341,0.0264,0.0408,0.0329,0.0494,0.0419,0.0426,0.043,0,-0.0236,-0.0254,-0.0256,-0.0205,-0.0196,-0.018,-0.0003,0.0036,0.0234,0.0308,0.044,0.0471,0.0599,0.0438,0.0619,0.0519,0.0494,0.0513,0.0521,0.045,0.0295,0.0424,0.0568,0.0266,0.0491,0.0486,0.0481,0,-0.015,-0.0185,-0.0163,-0.017,-0.0135,-0.0069,-0.0019,0.0167,0.0338,0.0552,0.075,0.0853,0.0982,0.0996,0.0916,0.0819,0.1128,0.1004,0.0869,0.0854,0.0869,0.0843,0.0818,0.1177,0.1177,0.1176,0.1176,0,-0.0108,-0.0073,-0.0109,-0.0088,0.0061,0.0039,0.0287,0.0382,0.0641,0.0949,0.0937,0.1208,0.1151,0.1265,0.1114,0.112,0.1281,0.0971,0.0954,0.086,0.0832,0.0632,0.0454,0.1183,0.1182,0.118,0.1179,0,0.0023,-0.0045,0.0029,0.007,0.0101,0.023,0.0455,0.0696,0.0875,0.128,0.1369,0.1583,0.1713,0.1598,0.1664,0.1433,0.1236,0.1342,0.1166,0.1124,0.0654,0.0481,0.0601,0.0405,0.1268,0.1267,0.1266,0,0.0106,0.0129,0.0184,0.0281,0.0312,0.0477,0.0655,0.0809,0.1097,0.1531,0.1784,0.1996,0.219,0.2162,0.1809,0.1573,0.1284,0.1302,0.1098,0.0693,0.0492,0.0416,0.0234,0.1098,0.1096,0.1094,0.1092,0,0.0344,0.0343,0.0433,0.0573,0.0725,0.0919,0.1161,0.1391,0.166,0.1977,0.2411,0.2581,0.2507,0.2265,0.186,0.1636,0.1038,0.1253,0.0964,0.0494,0.0304,0.0081,0.0805,0.1076,0.1078,0.1079,0.108,0.1081,0.0613,0.0722,0.0816,0.0968,0.1133,0.1382,0.1573,0.1859,0.2249,0.2699,0.2809,0.3053,0.2632,0.2084,0.1679,0.0878,0.0936,0.0627,0.0492,0.0484,0.0192,0.0812,0.0965,0.0966,0.0966,0.0967,0.0968,0,0.0963,0.1047,0.1214,0.1401,0.162,0.1612,0.1962,0.217,0.2581,0.2914,0.3198,0.3124,0.2497,0.1826,0.0795,0.0218,-0.0007,-0.0067,-0.0193,-0.032,0.0372,0.0246,0.0094,0.0094,0.0095,0.0095,0.0095,0.0095,0.1192,0.1405,0.1428,0.1811,0.1936,0.2221,0.2396,0.2661,0.2908,0.327,0.3394,0.3484,0.3083,0.1256,-0.0052,-0.0417,-0.088,-0.0887,-0.1105,-0.0694,-0.0641,-0.0591,-0.075,-0.1108,-0.111,-0.1768,-0.1775,-0.178]}],[{"header":{"parameterUnit":"m.s-1","parameterCategory":2,"la1":30.2991,"la2":30.254,"lo1":-89.0895,"lo2":-89.0444,"dy":0.0017,"dx":0.0017,"nx":28,"ny":28,"refTime":"2025-06-11T03:00:00:Z","depth":"2","parameterNumber":2,"parameterNumberName":"U-component_of_CURRENTS"},"data":[0,0,0,0,0,0,0,0,0,0,0,0,0,0,0,0,0,0,0,0,0,0,0,0,0,0,0,0,0,0,0,0,0,0,0,0,0,0,0,0,0,0,0,0,0,0,0,0,0,0,0,0,0,0,0,0,0,0,0.21,0.2101,0,0.2141,0.2141,0.2142,0.2119,0.2118,0.2117,0.2117,0.2103,0.2103,0.2104,0,0,0,0,0,0,0,0,0,0,0,0,0,0.2,0.2002,0.21,0.2101,0.2101,0.2141,0.2141,0.2142,0.2119,0.2118,0.2117,0.2116,0.2103,0.2103,0.2104,0,0,0,0,0,0,0,0,0,0,0,0,0,0.2039,0.2002,0.21,0.2097,0.2098,0.2141,0.2141,0.2142,0.2119,0.2118,0.2117,0.2116,0.2103,0.2103,0.2104,0.2132,0,0,0.2106,0.2106,0,0,0,0,0,0,0,0,0.2037,0.2043,0.2097,0.2098,0.2098,0.2127,0.2102,0.2137,0.212,0.2108,0.2117,0.2115,0.2109,0.2109,0.2115,0.2132,0.2131,0.2106,0.2106,0.2106,0.2106,0,0,0,0,0,0,0,0.2035,0.2041,0.2113,0.2098,0.2099,0.2094,0.2098,0.2108,0.2111,0.2109,0.2108,0.2118,0.2108,0.2115,0.2115,0.2131,0.2106,0.2106,0.2107,0.2107,0.2184,0.2185,0,0,0,0,0,0,0.2038,0.2039,0.2112,0.2114,0.2068,0.2097,0.2101,0.2116,0.2112,0.2112,0.2119,0.2117,0.2115,0.2114,0.2114,0.2169,0.2106,0.2107,0.2107,0.2182,0.2184,0.2186,0,0,0,0,0,0,0.2036,0.2044,0.211,0.2079,0.2088,0.2101,0.2117,0.2118,0.213,0.2122,0.2119,0.2132,0.2114,0.2113,0.2133,0.2167,0.2107,0.2108,0.218,0.2183,0.2185,0.2265,0,0,0,0,0,0,0.2033,0.2043,0.2056,0.208,0.209,0.2155,0.2119,0.2119,0.2139,0.2137,0.2132,0.2129,0.2113,0.2132,0.2133,0.2167,0.2108,0.2178,0.2181,0.2184,0.226,0.227,0.2278,0,0,0,0,0,0.2029,0.2055,0.2056,0.2065,0.2106,0.2158,0.2163,0.2164,0.2141,0.2166,0.2152,0.2129,0.2153,0.2134,0.2135,0.217,0.2176,0.218,0.2184,0.2256,0.2268,0.2278,0,0,0,0,0,0,0.2018,0.2057,0.2057,0.2093,0.2131,0.2155,0.2178,0.2175,0.2184,0.2174,0.2151,0.215,0.2179,0.2167,0.2146,0.2202,0.2161,0.2165,0.2216,0.2227,0.2236,0.225,0.2109,0,0,0,0,0,0.2024,0.2052,0.2091,0.2122,0.2144,0.2161,0.218,0.2185,0.2197,0.2199,0.2194,0.2189,0.2198,0.2204,0.2209,0.2243,0.226,0.2265,0.2275,0.2282,0.2295,0.2372,0.239,0.2198,0.2198,0.2198,0,0,0.2024,0.2053,0.2066,0.2122,0.2147,0.2191,0.2169,0.2211,0.2236,0.2197,0.2226,0.2222,0.2214,0.2248,0.2261,0.2241,0.2344,0.2287,0.2294,0.2303,0.2378,0.2397,0.2414,0.2201,0.22,0.22,0,0,0.2054,0.2075,0.2112,0.215,0.2201,0.2218,0.2234,0.2269,0.2275,0.231,0.2284,0.2304,0.2317,0.2322,0.2323,0.2388,0.2389,0.2389,0.2449,0.2524,0.2541,0.2556,0.2595,0.2613,0.2394,0.2395,0.2395,0,0.2051,0.2106,0.2133,0.2185,0.2214,0.2234,0.2279,0.2301,0.2332,0.2344,0.233,0.2374,0.2355,0.2406,0.2418,0.241,0.2445,0.2406,0.2538,0.2553,0.2567,0.2604,0.2622,0.2399,0.2398,0.2398,0.2398,0,0.2112,0.2156,0.2188,0.2252,0.2289,0.2337,0.2372,0.2402,0.2407,0.2423,0.2478,0.248,0.2509,0.2506,0.2476,0.2566,0.2556,0.2541,0.2512,0.2591,0.2624,0.2643,0.2405,0.2403,0.2402,0.2401,0,0,0.2097,0.2205,0.2216,0.2251,0.2326,0.2359,0.2413,0.2466,0.2503,0.254,0.2602,0.2615,0.2629,0.2632,0.2621,0.2672,0.278,0.2651,0.2653,0.2694,0.2941,0.2916,0.2932,0.2803,0.2806,0.2809,0.2921,0,0.2134,0.2229,0.2274,0.2352,0.2398,0.2435,0.2483,0.2527,0.257,0.2637,0.2663,0.2715,0.2677,0.2703,0.2758,0.2784,0.2834,0.275,0.2855,0.2857,0.283,0.2955,0.2699,0.2777,0.2939,0.2942,0.2944,0,0.2173,0.2231,0.2313,0.2395,0.2418,0.2461,0.2537,0.259,0.2681,0.2719,0.28,0.2824,0.2911,0.2864,0.2988,0.2946,0.295,0.296,0.2965,0.2928,0.2868,0.2726,0.2804,0.2974,0.2971,0.2969,0.2967,0,0.2139,0.2252,0.231,0.2342,0.2441,0.2471,0.2522,0.2607,0.2666,0.2788,0.2855,0.296,0.3039,0.3089,0.3114,0.3069,0.3247,0.3183,0.316,0.3156,0.2951,0.2924,0.3265,0.3265,0.3265,0.3264,0.3264,0,0.2154,0.2199,0.2298,0.2328,0.2397,0.2461,0.2548,0.2613,0.2732,0.2827,0.2904,0.3015,0.3106,0.3205,0.3193,0.3265,0.3322,0.3207,0.3208,0.297,0.2945,0.3116,0.3097,0.3268,0.3267,0.3267,0.3266,0,0.2117,0.2184,0.2254,0.2353,0.2387,0.2434,0.2564,0.2629,0.2743,0.2885,0.293,0.3104,0.326,0.3323,0.3428,0.3378,0.342,0.3408,0.3112,0.3078,0.3247,0.3231,0.341,0.3411,0.3411,0.3412,0.3412,0,0.2113,0.2145,0.2259,0.2302,0.235,0.2437,0.25,0.2624,0.271,0.2933,0.3003,0.3203,0.3327,0.3492,0.3455,0.347,0.3499,0.322,0.308,0.3292,0.3275,0.3257,0.3241,0.2824,0.282,0.2816,0.2813,0,0.2103,0.214,0.2204,0.2285,0.2353,0.2432,0.2535,0.26,0.2762,0.2888,0.3085,0.3199,0.3367,0.3312,0.3335,0.3286,0.3203,0.3148,0.3486,0.2838,0.2752,0.2731,0.2731,0.2781,0.2784,0.2786,0.2788,0.2789,0.2098,0.2124,0.2201,0.2262,0.235,0.2404,0.243,0.2553,0.2675,0.2759,0.296,0.3003,0.3071,0.2985,0.294,0.2901,0.309,0.292,0.2926,0.2936,0.286,0.2781,0.2798,0.2801,0.2804,0.2807,0.2809,0,0.206,0.2093,0.2165,0.2231,0.2269,0.2343,0.2433,0.2421,0.2514,0.2577,0.2654,0.2443,0.2445,0.2544,0.2439,0.2456,0.2359,0.2372,0.2218,0.2255,0.2287,0.217,0.1929,0.1926,0.1923,0.1921,0,0,0.204,0.2062,0.2075,0.211,0.2167,0.218,0.2196,0.2212,0.2238,0.2139,0.209,0.2151,0.24,0.2054,0.2077,0.2004,0.2086,0.1924,0.2636,0.2488,0.2514,0.2627,0.2494,0,0,0,0,0]},{"header":{"parameterUnit":"m.s-1","parameterCategory":2,"la1":30.2991,"la2":30.254,"lo1":-89.0895,"lo2":-89.0444,"dy":0.0017,"dx":0.0017,"nx":28,"ny":28,"refTime":"2025-06-11T03:00:00:Z","depth":"2","parameterNumber":3,"parameterNumberName":"V-component_of_CURRENTS"},"data":[0,0,0,0,0,0,0,0,0,0,0,0,0,0,0,0,0,0,0,0,0,0,0,0,0,0,0,0,0,0,0,0,0,0,0,0,0,0,0,0,0,0,0,0,0,0,0,0,0,0,0,0,0,0,0,0,0,0,-0.0615,-0.0615,0,-0.0671,-0.0672,-0.0673,-0.0683,-0.0683,-0.0682,-0.0682,-0.0793,-0.0796,-0.08,0,0,0,0,0,0,0,0,0,0,0,0,0,-0.0535,-0.0536,-0.0615,-0.0615,-0.0616,-0.0671,-0.0672,-0.0673,-0.0683,-0.0683,-0.0682,-0.0681,-0.0792,-0.0796,-0.08,0,0,0,0,0,0,0,0,0,0,0,0,0,-0.0578,-0.0537,-0.0615,-0.0628,-0.063,-0.0671,-0.0672,-0.0673,-0.0683,-0.0683,-0.0682,-0.0681,-0.0791,-0.0796,-0.0801,-0.0845,0,0,-0.0816,-0.0818,0,0,0,0,0,0,0,0,-0.0576,-0.0581,-0.0625,-0.0627,-0.0629,-0.067,-0.0685,-0.0733,-0.0683,-0.0663,-0.0682,-0.0681,-0.0758,-0.0765,-0.0776,-0.085,-0.0855,-0.0816,-0.082,-0.0822,-0.0823,0,0,0,0,0,0,0,-0.0573,-0.0579,-0.0637,-0.0626,-0.0629,-0.0638,-0.0643,-0.0694,-0.0714,-0.0664,-0.0665,-0.0672,-0.0759,-0.0771,-0.0779,-0.0857,-0.0816,-0.0821,-0.0824,-0.0826,-0.0962,-0.0962,0,0,0,0,0,0,-0.0566,-0.0576,-0.0635,-0.0639,-0.0601,-0.064,-0.0646,-0.0657,-0.0712,-0.072,-0.0673,-0.0673,-0.0763,-0.0773,-0.0783,-0.0823,-0.0822,-0.0826,-0.0829,-0.0961,-0.0962,-0.0962,0,0,0,0,0,0,-0.0564,-0.0571,-0.0633,-0.0608,-0.0617,-0.0642,-0.0655,-0.0659,-0.0673,-0.0718,-0.0726,-0.0683,-0.0763,-0.0776,-0.0823,-0.0828,-0.0829,-0.0833,-0.096,-0.0961,-0.0962,-0.0914,0,0,0,0,0,0,-0.0562,-0.057,-0.058,-0.0608,-0.0618,-0.0649,-0.0656,-0.066,-0.0678,-0.0679,-0.073,-0.0739,-0.0763,-0.0815,-0.0828,-0.0835,-0.0837,-0.096,-0.0961,-0.0962,-0.0914,-0.0913,-0.0911,0,0,0,0,0,-0.0559,-0.0567,-0.058,-0.0588,-0.063,-0.0649,-0.0655,-0.067,-0.0679,-0.0682,-0.0717,-0.0738,-0.083,-0.082,-0.0834,-0.0843,-0.0959,-0.096,-0.0962,-0.0915,-0.0913,-0.0911,0,0,0,0,0,0,-0.054,-0.057,-0.0585,-0.0603,-0.0623,-0.065,-0.0658,-0.0674,-0.0705,-0.071,-0.075,-0.0762,-0.0804,-0.0836,-0.0823,-0.0886,-0.0897,-0.0901,-0.0857,-0.0855,-0.0854,-0.0827,-0.0841,0,0,0,0,0,-0.0541,-0.0555,-0.0584,-0.06,-0.0609,-0.0638,-0.0651,-0.0663,-0.0692,-0.0704,-0.0744,-0.0787,-0.0823,-0.0846,-0.0886,-0.0928,-0.0961,-0.0943,-0.0941,-0.094,-0.0929,-0.0952,-0.095,-0.0966,-0.0966,-0.0966,0,0,-0.054,-0.0559,-0.0568,-0.0597,-0.0615,-0.0621,-0.0643,-0.0661,-0.0671,-0.0715,-0.075,-0.0788,-0.0833,-0.0869,-0.0891,-0.0896,-0.0965,-0.0941,-0.0939,-0.093,-0.0953,-0.0951,-0.095,-0.0967,-0.0967,-0.0967,0,0,-0.0528,-0.0559,-0.0558,-0.0572,-0.0597,-0.0616,-0.0621,-0.0656,-0.0675,-0.0717,-0.0743,-0.078,-0.0851,-0.087,-0.0892,-0.0911,-0.0955,-0.093,-0.0901,-0.0923,-0.0922,-0.092,-0.1007,-0.1013,-0.0928,-0.0928,-0.0928,0,-0.0521,-0.0531,-0.0561,-0.0558,-0.0569,-0.0611,-0.0608,-0.0636,-0.0683,-0.0705,-0.0722,-0.0796,-0.0847,-0.0865,-0.0874,-0.0906,-0.0943,-0.0901,-0.0918,-0.0917,-0.0917,-0.1005,-0.1013,-0.0926,-0.0926,-0.0926,-0.0927,0,-0.0501,-0.0512,-0.0512,-0.0525,-0.054,-0.0549,-0.0585,-0.0613,-0.0652,-0.0684,-0.0722,-0.077,-0.0803,-0.0834,-0.0867,-0.0882,-0.0922,-0.0911,-0.0916,-0.0912,-0.1007,-0.1016,-0.0923,-0.0924,-0.0924,-0.0925,0,0,-0.0479,-0.0493,-0.0495,-0.0495,-0.0525,-0.0534,-0.0559,-0.0594,-0.0605,-0.0658,-0.0659,-0.0735,-0.0751,-0.0775,-0.0805,-0.0836,-0.0897,-0.0871,-0.0874,-0.0945,-0.0991,-0.0872,-0.0871,-0.0877,-0.0877,-0.0877,-0.1076,0,-0.0454,-0.0439,-0.046,-0.0456,-0.0453,-0.0497,-0.0511,-0.0551,-0.0594,-0.0609,-0.0654,-0.0674,-0.0727,-0.073,-0.0765,-0.0832,-0.091,-0.0847,-0.0995,-0.1001,-0.0881,-0.0872,-0.0818,-0.0974,-0.1085,-0.1087,-0.1088,0,-0.0428,-0.0422,-0.0409,-0.042,-0.0423,-0.0429,-0.0461,-0.0478,-0.0517,-0.0542,-0.0556,-0.0589,-0.0621,-0.0666,-0.0789,-0.0739,-0.0878,-0.0956,-0.0964,-0.0864,-0.0893,-0.0988,-0.0986,-0.1103,-0.1102,-0.1101,-0.11,0,-0.0396,-0.0393,-0.0383,-0.0386,-0.0401,-0.041,-0.0423,-0.0463,-0.0458,-0.0484,-0.0468,-0.0516,-0.0523,-0.0641,-0.0804,-0.0797,-0.0957,-0.0967,-0.1019,-0.1017,-0.1003,-0.0995,-0.1111,-0.1111,-0.111,-0.111,-0.1109,0,-0.0364,-0.0361,-0.0366,-0.036,-0.0337,-0.0372,-0.0351,-0.0376,-0.0372,-0.035,-0.0411,-0.039,-0.0515,-0.0614,-0.0778,-0.0897,-0.0946,-0.1009,-0.1033,-0.0989,-0.0978,-0.1101,-0.1097,-0.1117,-0.1116,-0.1114,-0.1113,0,-0.0336,-0.0342,-0.0322,-0.0325,-0.0318,-0.0302,-0.0272,-0.0258,-0.0272,-0.0228,-0.0223,-0.0293,-0.0394,-0.0558,-0.0771,-0.0847,-0.0996,-0.1073,-0.1033,-0.1042,-0.1069,-0.1061,-0.1106,-0.1102,-0.11,-0.1098,-0.1096,0,-0.0328,-0.0316,-0.028,-0.0244,-0.0242,-0.0212,-0.0186,-0.0196,-0.0176,-0.0172,-0.0146,-0.0228,-0.0216,-0.0443,-0.065,-0.0872,-0.0993,-0.0988,-0.0931,-0.1036,-0.1057,-0.1053,-0.1049,-0.0964,-0.0961,-0.0959,-0.0957,0,-0.0308,-0.0293,-0.0258,-0.0198,-0.0159,-0.0097,-0.0071,-0.0031,-0.0047,0.0025,0.0055,0.0084,-0.0103,-0.023,-0.0508,-0.0675,-0.0902,-0.0938,-0.1076,-0.0911,-0.0899,-0.092,-0.0922,-0.0936,-0.0939,-0.094,-0.0941,-0.0942,-0.029,-0.0259,-0.0225,-0.0163,-0.0099,-0.0039,0.0032,0.01,0.0184,0.0339,0.0278,0.0407,0.0151,-0.0057,-0.0373,-0.0714,-0.073,-0.0834,-0.0844,-0.0856,-0.074,-0.0716,-0.0706,-0.0707,-0.0707,-0.0708,-0.0708,0,-0.0303,-0.0272,-0.0203,-0.0144,-0.0067,-0.0035,0.0069,0.021,0.0367,0.0553,0.0707,0.0593,0.0445,0.0101,-0.0344,-0.0585,-0.0666,-0.0688,-0.0756,-0.0772,-0.0788,-0.0672,-0.062,-0.0621,-0.0621,-0.0621,0,0,-0.0316,-0.0281,-0.0253,-0.0163,-0.0088,0.0044,0.0133,0.0412,0.0606,0.0881,0.1003,0.1119,0.0642,0.0355,-0.0061,-0.0341,-0.0489,-0.0389,-0.0429,-0.0477,-0.0488,-0.084,-0.0673,0,0,0,0,0]}],[{"header":{"parameterUnit":"m.s-1","parameterCategory":2,"la1":30.2991,"la2":30.254,"lo1":-89.0895,"lo2":-89.0444,"dy":0.0017,"dx":0.0017,"nx":28,"ny":28,"refTime":"2025-06-11T03:00:00:Z","depth":"4","parameterNumber":2,"parameterNumberName":"U-component_of_CURRENTS"},"data":[0,0,0,0,0,0,0,0,0,0,0,0,0,0,0,0,0,0,0,0,0,0,0,0,0,0,0,0,0,0,0,0,0,0,0,0,0,0,0,0,0,0,0,0,0,0,0,0,0,0,0,0,0,0,0,0,0,0,0.0964,0.0964,0,0.0987,0.0987,0.0988,0.1044,0.1045,0.1046,0.1047,0.1114,0.1115,0.1116,0,0,0,0,0,0,0,0,0,0,0,0,0,0.0921,0.0922,0.0963,0.0964,0.0964,0.0987,0.0987,0.0988,0.1044,0.1045,0.1047,0.1048,0.1114,0.1115,0.1116,0,0,0,0,0,0,0,0,0,0,0,0,0,0.0942,0.0922,0.0963,0.0995,0.0998,0.0987,0.0987,0.0988,0.1043,0.1045,0.1047,0.1049,0.1114,0.1115,0.1116,0.1087,0,0,0.1119,0.1119,0,0,0,0,0,0,0,0,0.094,0.0943,0.099,0.0993,0.0996,0.1014,0.0997,0.1023,0.1043,0.1026,0.1047,0.105,0.1084,0.1087,0.1087,0.109,0.1093,0.1119,0.112,0.112,0.112,0,0,0,0,0,0,0,0.0939,0.0942,0.0973,0.099,0.0994,0.0992,0.0997,0.1002,0.1045,0.1028,0.1032,0.1034,0.1086,0.1086,0.1089,0.1094,0.1119,0.112,0.1121,0.1121,0.1213,0.1215,0,0,0,0,0,0,0.0937,0.0941,0.0972,0.0974,0.0972,0.0991,0.0997,0.1007,0.1045,0.1052,0.1032,0.1036,0.1083,0.1088,0.1092,0.1188,0.112,0.1121,0.1122,0.1211,0.1214,0.1216,0,0,0,0,0,0,0.0936,0.0939,0.0971,0.0957,0.0961,0.0991,0.1,0.1006,0.104,0.1048,0.1056,0.1064,0.1085,0.109,0.1133,0.1186,0.1122,0.1123,0.1209,0.1212,0.1215,0.1297,0,0,0,0,0,0,0.0934,0.0939,0.0956,0.0957,0.0962,0.0982,0.0999,0.1005,0.1036,0.1042,0.1076,0.1083,0.1087,0.1131,0.1134,0.1186,0.1123,0.1207,0.1211,0.1214,0.1292,0.1302,0.1311,0,0,0,0,0,0.0933,0.094,0.0957,0.0961,0.0981,0.0982,0.0985,0.1011,0.1036,0.1049,0.1084,0.1083,0.1156,0.1133,0.1136,0.119,0.1205,0.121,0.1214,0.1288,0.13,0.1311,0,0,0,0,0,0,0.0926,0.0946,0.0965,0.0979,0.0991,0.0993,0.101,0.1025,0.106,0.1082,0.1095,0.1103,0.1166,0.1158,0.1133,0.1227,0.1184,0.1189,0.124,0.1252,0.1261,0.128,0.1124,0,0,0,0,0,0.0933,0.0947,0.0962,0.0974,0.0988,0.1006,0.1016,0.1033,0.1056,0.1075,0.1111,0.1146,0.1176,0.1199,0.1221,0.126,0.1252,0.1299,0.1309,0.1317,0.1335,0.1361,0.1374,0.1229,0.1229,0.1229,0,0,0.0929,0.0944,0.0952,0.0974,0.0992,0.1008,0.1018,0.1042,0.1058,0.1075,0.1137,0.118,0.1193,0.1251,0.1278,0.1257,0.1354,0.1322,0.1329,0.1343,0.1367,0.1381,0.1393,0.1232,0.1232,0.1231,0,0,0.0917,0.0952,0.0961,0.098,0.1012,0.1024,0.1038,0.1074,0.11,0.1149,0.1179,0.1256,0.1294,0.133,0.1344,0.1414,0.1402,0.143,0.1497,0.1522,0.1535,0.1545,0.1547,0.1557,0.1436,0.1437,0.1437,0,0.0916,0.0928,0.0961,0.0979,0.1,0.1037,0.1054,0.1073,0.1122,0.117,0.1183,0.131,0.1331,0.1402,0.1448,0.1438,0.1444,0.1452,0.1535,0.1545,0.1555,0.1554,0.1564,0.1441,0.144,0.144,0.144,0,0.0906,0.0929,0.0939,0.098,0.1011,0.1027,0.1067,0.113,0.1186,0.1223,0.1331,0.1373,0.1462,0.1484,0.1494,0.1588,0.1567,0.1542,0.1505,0.1575,0.1569,0.1578,0.1447,0.1446,0.1444,0.1443,0,0,0.0856,0.0918,0.0923,0.0952,0.1015,0.1036,0.1104,0.1174,0.1247,0.1319,0.1409,0.1499,0.1569,0.1591,0.1621,0.1658,0.1739,0.1651,0.1651,0.1652,0.1792,0.1714,0.1716,0.1736,0.1738,0.174,0.1758,0,0.0834,0.0869,0.0906,0.0948,0.0978,0.1061,0.1126,0.1213,0.1294,0.1396,0.1467,0.1563,0.1583,0.1662,0.1703,0.1736,0.177,0.1736,0.1726,0.1726,0.1647,0.1726,0.1748,0.1764,0.1766,0.1768,0.1769,0,0.0799,0.0839,0.0881,0.0969,0.0995,0.1043,0.1198,0.1249,0.14,0.1483,0.1604,0.166,0.1766,0.1753,0.1837,0.1821,0.1832,0.1833,0.1832,0.1741,0.1666,0.1682,0.1784,0.1783,0.1782,0.1781,0.178,0,0.0747,0.0807,0.0848,0.0875,0.0994,0.1067,0.1144,0.1306,0.1384,0.155,0.1642,0.1752,0.1826,0.186,0.1906,0.1887,0.196,0.1912,0.1839,0.1831,0.1855,0.1844,0.1961,0.1961,0.1961,0.1961,0.1961,0,0.0689,0.0716,0.0841,0.0865,0.0965,0.1059,0.1184,0.1301,0.1462,0.156,0.1684,0.1764,0.1866,0.192,0.1929,0.1924,0.1979,0.1873,0.1845,0.1887,0.1879,0.1861,0.1849,0.1962,0.1961,0.1961,0.1961,0,0.0604,0.0675,0.0727,0.0872,0.094,0.1013,0.1201,0.1273,0.1457,0.1584,0.1648,0.1805,0.1882,0.1942,0.1999,0.195,0.1948,0.1926,0.198,0.1949,0.1788,0.178,0.1832,0.183,0.1828,0.1826,0.1825,0,0.0553,0.0582,0.0731,0.0779,0.0846,0.0983,0.1072,0.127,0.1337,0.1583,0.1606,0.1769,0.1854,0.1849,0.193,0.194,0.1921,0.1903,0.1849,0.1815,0.1782,0.1777,0.1772,0.1822,0.1821,0.1821,0.182,0,0.0466,0.0529,0.058,0.0703,0.0791,0.0883,0.1017,0.1079,0.1288,0.1453,0.1563,0.1651,0.1729,0.1784,0.1831,0.1825,0.1907,0.1882,0.1885,0.1833,0.1803,0.1771,0.1768,0.1814,0.1815,0.1815,0.1816,0,0.04,0.0419,0.051,0.0598,0.0708,0.077,0.0853,0.0955,0.1081,0.1351,0.1378,0.1547,0.1696,0.1725,0.1753,0.1772,0.1736,0.167,0.1683,0.1692,0.1647,0.1587,0.1528,0,0,0,0,0,0.0344,0.0357,0.0405,0.0504,0.0597,0.0671,0.0811,0.0888,0.1098,0.1132,0.1276,0.1354,0.1473,0.1548,0.1538,0.1678,0.1723,0.1661,0.1647,0.1777,0.1784,0.175,0,0,0,0,0,0,0.031,0.0349,0.0364,0.0413,0.0461,0.0561,0.0641,0.0762,0.0802,0.102,0.107,0.1264,0.1363,0.1454,0.1505,0.1534,0.1499,0.1779,0.1776,0.1772,0.1779,0.1786,0.1752,0,0,0,0,0]},{"header":{"parameterUnit":"m.s-1","parameterCategory":2,"la1":30.2991,"la2":30.254,"lo1":-89.0895,"lo2":-89.0444,"dy":0.0017,"dx":0.0017,"nx":28,"ny":28,"refTime":"2025-06-11T03:00:00:Z","depth":"4","parameterNumber":3,"parameterNumberName":"V-component_of_CURRENTS"},"data":[0,0,0,0,0,0,0,0,0,0,0,0,0,0,0,0,0,0,0,0,0,0,0,0,0,0,0,0,0,0,0,0,0,0,0,0,0,0,0,0,0,0,0,0,0,0,0,0,0,0,0,0,0,0,0,0,0,0,0.0147,0.0147,0,0.0178,0.0178,0.0178,0.0147,0.0146,0.0145,0.0144,0.0118,0.0118,0.0119,0,0,0,0,0,0,0,0,0,0,0,0,0,0.0038,0.004,0.0147,0.0147,0.0148,0.0178,0.0178,0.0178,0.0147,0.0146,0.0145,0.0143,0.0118,0.0118,0.0119,0,0,0,0,0,0,0,0,0,0,0,0,0,0.0077,0.0041,0.0146,0.0137,0.0137,0.0178,0.0178,0.0178,0.0147,0.0146,0.0144,0.0143,0.0118,0.0118,0.0119,0.0153,0,0,0.012,0.012,0,0,0,0,0,0,0,0,0.0075,0.0081,0.0138,0.0138,0.0138,0.0158,0.013,0.0168,0.0148,0.0141,0.0144,0.0142,0.0129,0.0128,0.0136,0.0152,0.0151,0.012,0.012,0.012,0.0121,0,0,0,0,0,0,0,0.0072,0.0079,0.0157,0.0139,0.0139,0.0124,0.0128,0.0137,0.0141,0.0142,0.014,0.0147,0.0128,0.0135,0.0135,0.015,0.012,0.012,0.0121,0.0121,0.0155,0.0155,0,0,0,0,0,0,0.0076,0.0077,0.0156,0.0158,0.0104,0.0127,0.0132,0.0152,0.0142,0.014,0.0148,0.0146,0.0135,0.0134,0.0134,0.0154,0.012,0.0121,0.0121,0.0154,0.0155,0.0156,0,0,0,0,0,0,0.0074,0.0083,0.0155,0.0118,0.0127,0.0131,0.0154,0.0153,0.0156,0.0148,0.0144,0.0152,0.0134,0.0133,0.0151,0.0153,0.0121,0.0121,0.0153,0.0154,0.0155,0.0207,0,0,0,0,0,0,0.0071,0.0082,0.0096,0.012,0.0129,0.019,0.0156,0.0155,0.0164,0.0161,0.015,0.0146,0.0133,0.015,0.0151,0.0153,0.0122,0.0153,0.0154,0.0155,0.0205,0.021,0.0214,0,0,0,0,0,0.0067,0.0107,0.0097,0.0106,0.015,0.0191,0.0196,0.019,0.0166,0.0183,0.0173,0.0146,0.0157,0.0153,0.0153,0.0155,0.0152,0.0154,0.0155,0.0203,0.0209,0.0214,0,0,0,0,0,0,0.0073,0.0108,0.0098,0.0147,0.0167,0.0187,0.0207,0.0196,0.0203,0.0198,0.0171,0.0169,0.0178,0.0167,0.0162,0.0167,0.0144,0.0146,0.018,0.0186,0.019,0.0178,0.0122,0,0,0,0,0,0.008,0.0116,0.0139,0.0177,0.0189,0.0194,0.0207,0.0209,0.0219,0.0219,0.0212,0.0199,0.0188,0.0187,0.0185,0.0203,0.0152,0.0199,0.0204,0.0208,0.0198,0.0107,0.0102,0.016,0.016,0.016,0,0,0.0093,0.0117,0.0137,0.018,0.0193,0.0232,0.0198,0.0235,0.0256,0.0217,0.0245,0.0223,0.0197,0.021,0.0212,0.02,0.0173,0.021,0.0214,0.0201,0.0108,0.0101,0.0096,0.0161,0.0161,0.0161,0,0,0.0154,0.016,0.0212,0.0231,0.0263,0.0267,0.0277,0.0302,0.0298,0.033,0.0289,0.0266,0.0283,0.0246,0.0231,0.0262,0.0201,0.0264,0.0279,0.0191,0.0185,0.0178,0.0138,0.0127,0.0265,0.0265,0.0265,0,0.0164,0.0229,0.0232,0.0284,0.03,0.0284,0.0333,0.0338,0.0363,0.0347,0.0349,0.0306,0.0292,0.0254,0.0267,0.0269,0.0225,0.026,0.0195,0.0187,0.0179,0.0139,0.0126,0.0268,0.0268,0.0267,0.0267,0,0.0264,0.0304,0.0338,0.0388,0.0407,0.0449,0.0451,0.0459,0.0446,0.0431,0.04,0.0372,0.0331,0.0325,0.0314,0.0251,0.0241,0.021,0.0176,0.0176,0.0135,0.0121,0.0272,0.0271,0.027,0.0269,0,0,0.0312,0.0391,0.0401,0.0418,0.0459,0.048,0.0509,0.0509,0.0489,0.049,0.045,0.0428,0.0374,0.0352,0.0311,0.0244,0.0174,0.0215,0.0209,0.0169,0.0008,0.0027,0.0013,0.0124,0.0122,0.0119,0.0012,0,0.0381,0.0483,0.0504,0.0568,0.0605,0.0586,0.0604,0.0591,0.0562,0.0523,0.0449,0.0411,0.0394,0.0363,0.0293,0.0193,0.0134,0.0208,0.0018,0.0014,0.0023,-0.0005,0.011,0.0001,-0.0002,-0.0004,-0.0006,0,0.0471,0.0516,0.0604,0.0624,0.0636,0.0672,0.0645,0.0659,0.0592,0.0561,0.0489,0.0426,0.0334,0.0316,0.0142,0.0189,0.0108,0.0036,0.0029,0.001,0.0004,-0.0008,-0.0032,-0.003,-0.0028,-0.0026,-0.0025,0,0.0488,0.0574,0.0633,0.065,0.0686,0.0701,0.071,0.067,0.0657,0.0572,0.054,0.0412,0.0355,0.0215,0.0097,0.0103,-0.0095,-0.0115,-0.0171,-0.0169,-0.0176,-0.0169,-0.0247,-0.0247,-0.0246,-0.0246,-0.0246,0,0.054,0.0579,0.0648,0.0674,0.0709,0.0728,0.0738,0.0714,0.0677,0.065,0.0557,0.0503,0.0323,0.02,0.008,-0.0077,-0.0113,-0.018,-0.0211,-0.0143,-0.0131,-0.0184,-0.0175,-0.025,-0.0249,-0.0248,-0.0248,0,0.0536,0.0601,0.0648,0.07,0.0724,0.0739,0.0777,0.0764,0.0742,0.0701,0.0679,0.0552,0.0395,0.0231,0.0007,-0.0083,-0.0248,-0.0288,-0.0172,-0.0192,-0.0256,-0.0243,-0.0388,-0.0389,-0.0389,-0.039,-0.039,0,0.0537,0.0573,0.0648,0.0676,0.0706,0.075,0.0774,0.0789,0.0785,0.0735,0.0709,0.0571,0.0473,0.0185,0.0006,-0.0234,-0.0257,-0.0336,-0.0329,-0.0262,-0.0278,-0.0264,-0.0251,-0.0391,-0.0391,-0.0391,-0.0391,0,0.0497,0.0535,0.0566,0.065,0.0699,0.0742,0.0794,0.0804,0.0815,0.0796,0.0724,0.058,0.041,0.0189,0.0016,-0.0157,-0.0295,-0.0342,-0.0342,-0.0337,-0.0268,-0.028,-0.0266,-0.0393,-0.0393,-0.0392,-0.0392,0,0.0444,0.0464,0.0538,0.0606,0.0672,0.0738,0.076,0.0786,0.0801,0.0776,0.0751,0.0581,0.0483,0.023,0.0062,-0.0102,-0.0152,-0.0208,-0.0217,-0.0217,-0.0134,-0.0019,-0.0109,0,0,0,0,0,0.0403,0.0456,0.0494,0.0591,0.0654,0.0714,0.0775,0.0796,0.0832,0.0788,0.0781,0.0632,0.0381,0.0264,0.0101,0.0031,-0.0194,-0.0168,-0.0266,-0.0403,-0.0401,-0.0331,0,0,0,0,0,0,0.0388,0.0437,0.0486,0.0579,0.0639,0.0723,0.0768,0.078,0.0769,0.0773,0.0643,0.0593,0.0346,0.0481,0.01,0.0049,-0.0037,-0.028,-0.0284,-0.0404,-0.0402,-0.04,-0.0328,0,0,0,0,0]}]]